OneWeb SL0204

operational
NORAD ID: 48225 Int'l Des: 2021-031 Owner: ONEWEBN Country: UK Constellation: oneweb
LEOCIRCULARPOLARONEWEB_TYPE

Über OneWeb SL0204

Beschreibung wird geladen...

Live-Position

3D-Globus wird geladen...

Nächste Überflüge

Höhenverlauf

Altitude vs Time

uPlot chart will show altitude changes over time

Zweizeiliger Elementsatz

1 48225U 21031R 26034.27114576 -.00000158 00000-0 -46069-3 0 9990
2 48225 87.9029 316.3987 0002011 74.8394 285.2958 13.14504045230667
Epoch: 3. Feb. 2026 • Age: 22 hours

Aktueller Status

Höhe 1230.1 km
Geschwindigkeit 7.24 km/s
Subsatellitenpunkt -60.23°S, 116.37°E
Startdatum 25. Apr. 2021
Alter 4.7 years
Typ internet

Technische Details

Klassifizierung Payload
Masse 148.00 kg
Trockenmasse 140.00 kg
Gesamtmasse 148.00 kg
Länge 1.30 m
Durchmesser 1.00 m
Spannweite 5.00 m
Form Trapezoid+2 pan
Hersteller ONEWUS
Bus-Typ ARROW
Phasenstatus In Orbit
Besitzer/Staat ONEWEBN/UK

Große Konstellationen

Loading constellations...